[[{"header":{"parameterUnit":"m.s-1","parameterCategory":1,"la1":30.2991,"la2":30.254,"lo1":-89.0895,"lo2":-89.0444,"dy":0.0017,"dx":0.0017,"nx":28,"ny":28,"refTime":"2025-12-26T03:00:00:Z","depth":0,"parameterNumber":2,"parameterNumberName":"U-component_of_WINDS"},"data":[0,0,0,0,0,0,0,0,0,0,0,0,0,0,0,0,0,0,0,0,0,0,0,0,0,0,0,0,0,0,0,0,0,0,0,0,0,0,0,0,0,0,0,0,0,0,0,0,0,0,0,0,0,0,0,0,0,0,0.3032,0.3033,0,0.3112,0.3113,0.3114,0.316,0.316,0.3161,0.3161,0.3244,0.3246,0.3248,0,0,0,0,0,0,0,0,0,0,0,0,0,0.2919,0.2921,0.3032,0.3033,0.3034,0.3112,0.3113,0.3115,0.316,0.316,0.3161,0.3161,0.3244,0.3246,0.3249,0,0,0,0,0,0,0,0,0,0,0,0,0,0.2981,0.2921,0.3032,0.3066,0.307,0.3112,0.3113,0.3115,0.316,0.316,0.3161,0.3161,0.3243,0.3246,0.3249,0.3263,0,0,0.3259,0.326,0,0,0,0,0,0,0,0,0.2977,0.2985,0.306,0.3064,0.3068,0.3127,0.3104,0.3165,0.316,0.3126,0.3161,0.3161,0.3205,0.3211,0.3226,0.3267,0.3271,0.3259,0.3261,0.3262,0.3263,0,0,0,0,0,0,0,0.2973,0.2981,0.3064,0.3061,0.3066,0.3078,0.3087,0.3116,0.3163,0.3129,0.3133,0.3141,0.3207,0.3223,0.3228,0.3272,0.3259,0.3262,0.3263,0.3265,0.333,0.3329,0,0,0,0,0,0,0.2963,0.2978,0.3061,0.3066,0.3022,0.308,0.309,0.3108,0.3163,0.3172,0.3141,0.3143,0.3217,0.3225,0.3231,0.3252,0.3262,0.3265,0.3267,0.333,0.333,0.3329,0,0,0,0,0,0,0.296,0.297,0.3058,0.3023,0.3035,0.3081,0.3101,0.3109,0.3125,0.3172,0.3181,0.3148,0.3218,0.3227,0.3255,0.3255,0.3266,0.3269,0.333,0.333,0.3329,0.3293,0,0,0,0,0,0,0.2957,0.2969,0.2974,0.3023,0.3037,0.308,0.3101,0.311,0.313,0.3133,0.3181,0.3189,0.3219,0.325,0.3258,0.326,0.3272,0.333,0.333,0.333,0.3294,0.3291,0.3289,0,0,0,0,0,0.2952,0.2961,0.2974,0.2984,0.3045,0.308,0.3088,0.3121,0.3129,0.3136,0.3166,0.3188,0.3254,0.3253,0.3262,0.3265,0.333,0.333,0.333,0.3295,0.3292,0.3289,0,0,0,0,0,0,0.2912,0.2968,0.2983,0.3008,0.3039,0.3087,0.3096,0.3117,0.3146,0.3148,0.3189,0.3199,0.3223,0.3247,0.3244,0.3282,0.3294,0.3296,0.3265,0.3262,0.326,0.3254,0.3274,0,0,0,0,0,0.2906,0.2929,0.2977,0.2994,0.3009,0.305,0.3066,0.3089,0.3123,0.3136,0.3169,0.3201,0.323,0.3247,0.3276,0.3298,0.3309,0.3304,0.3302,0.3299,0.33,0.3313,0.3312,0.3328,0.3328,0.3328,0,0,0.2893,0.2927,0.2939,0.2987,0.3013,0.3037,0.306,0.3085,0.3103,0.314,0.3169,0.3194,0.3232,0.3257,0.327,0.3278,0.3298,0.3299,0.3297,0.3299,0.3313,0.3311,0.331,0.3328,0.3328,0.3328,0,0,0.2883,0.291,0.2927,0.2954,0.2993,0.3021,0.3025,0.3071,0.3088,0.3117,0.3146,0.3168,0.3216,0.3242,0.3262,0.3261,0.3282,0.3269,0.3256,0.3268,0.3267,0.3266,0.3265,0.3265,0.327,0.327,0.327,0,0.2862,0.2899,0.2934,0.2956,0.2976,0.3011,0.3029,0.3052,0.31,0.3113,0.3121,0.3181,0.321,0.3241,0.3241,0.3256,0.3262,0.3264,0.3264,0.3263,0.3263,0.3263,0.3263,0.3268,0.3268,0.3269,0.3269,0,0.2872,0.2896,0.2906,0.295,0.2971,0.2991,0.3029,0.3046,0.3067,0.3094,0.3123,0.3158,0.3194,0.3204,0.3225,0.3238,0.3242,0.3256,0.327,0.3259,0.326,0.326,0.3266,0.3266,0.3267,0.3267,0,0,0.2838,0.2901,0.2904,0.2924,0.297,0.299,0.3012,0.3047,0.3061,0.3092,0.3111,0.3151,0.3164,0.3187,0.3211,0.3222,0.3219,0.3235,0.3237,0.3231,0.3236,0.3224,0.3224,0.3233,0.3233,0.3233,0.3232,0,0.2834,0.2874,0.2906,0.2934,0.2957,0.299,0.3009,0.304,0.3065,0.3089,0.3117,0.3144,0.316,0.3174,0.3186,0.3216,0.322,0.3217,0.3251,0.3252,0.324,0.3224,0.3212,0.321,0.3233,0.3233,0.3233,0,0.2835,0.2864,0.2894,0.2938,0.2949,0.2965,0.3,0.3022,0.3058,0.3075,0.31,0.3125,0.3149,0.3161,0.3195,0.3192,0.3208,0.3225,0.3226,0.323,0.3242,0.3228,0.321,0.3209,0.3234,0.3234,0.3234,0,0.2807,0.2854,0.2878,0.2895,0.2946,0.2957,0.2979,0.3015,0.3034,0.3064,0.3077,0.311,0.3128,0.3153,0.3186,0.3191,0.3217,0.3231,0.3232,0.3232,0.3236,0.3236,0.322,0.3247,0.3247,0.3247,0.3247,0,0.2799,0.2816,0.2866,0.2881,0.2901,0.2938,0.2957,0.2982,0.3013,0.3034,0.3065,0.3084,0.3127,0.3151,0.3177,0.3201,0.3209,0.3224,0.3231,0.3222,0.322,0.3233,0.3233,0.3247,0.3247,0.3247,0.3247,0,0.2771,0.2806,0.2834,0.288,0.2893,0.2905,0.2945,0.2961,0.2988,0.3013,0.3021,0.3064,0.3093,0.3129,0.3171,0.3188,0.321,0.3221,0.3198,0.3202,0.3201,0.32,0.3194,0.3194,0.322,0.322,0.3219,0,0.2764,0.2778,0.2826,0.2841,0.2862,0.2887,0.2906,0.2943,0.2962,0.3003,0.3014,0.3046,0.3073,0.3119,0.3154,0.3186,0.3197,0.3192,0.3202,0.3192,0.3197,0.3195,0.3197,0.319,0.3189,0.3189,0.3189,0,0.2747,0.2763,0.279,0.2822,0.2844,0.2871,0.29,0.2911,0.2954,0.2974,0.3004,0.3025,0.3067,0.3098,0.3135,0.3158,0.318,0.3185,0.3187,0.3177,0.3163,0.3171,0.3191,0.3185,0.3186,0.3186,0.3186,0.3186,0.273,0.2743,0.2779,0.2807,0.2832,0.2858,0.2875,0.2904,0.293,0.2966,0.2987,0.3017,0.3052,0.3103,0.3125,0.3149,0.3157,0.316,0.3161,0.3161,0.3158,0.316,0.3156,0.3156,0.3156,0.3156,0.3156,0,0.2714,0.2739,0.2764,0.2803,0.2825,0.2844,0.2877,0.2894,0.292,0.295,0.2977,0.3011,0.3042,0.3079,0.3112,0.3124,0.3135,0.3131,0.3131,0.3136,0.3149,0.3144,0.3122,0.3122,0.3122,0.3122,0.3122,0.3122,0.2709,0.2733,0.2753,0.279,0.2815,0.2844,0.2861,0.2885,0.2909,0.2947,0.2972,0.2996,0.3029,0.3064,0.3093,0.3103,0.3114,0.3107,0.312,0.3132,0.3135,0.3138,0.3133,0.3109,0.3109,0.3105,0.3105,0.3105]},{"header":{"parameterUnit":"m.s-1","parameterCategory":1,"la1":30.2991,"la2":30.254,"lo1":-89.0895,"lo2":-89.0444,"dy":0.0017,"dx":0.0017,"nx":28,"ny":28,"refTime":"2025-12-26T03:00:00:Z","depth":0,"parameterNumber":3,"parameterNumberName":"V-component_of_WINDS"},"data":[0,0,0,0,0,0,0,0,0,0,0,0,0,0,0,0,0,0,0,0,0,0,0,0,0,0,0,0,0,0,0,0,0,0,0,0,0,0,0,0,0,0,0,0,0,0,0,0,0,0,0,0,0,0,0,0,0,0,0.7975,0.7976,0,0.799,0.799,0.799,0.8015,0.8016,0.8016,0.8016,0.803,0.803,0.803,0,0,0,0,0,0,0,0,0,0,0,0,0,0.7968,0.7968,0.7975,0.7976,0.7976,0.799,0.799,0.799,0.8015,0.8016,0.8016,0.8017,0.803,0.803,0.803,0,0,0,0,0,0,0,0,0,0,0,0,0,0.7976,0.7968,0.7975,0.799,0.7991,0.799,0.799,0.799,0.8015,0.8016,0.8016,0.8017,0.803,0.803,0.803,0.8015,0,0,0.803,0.803,0,0,0,0,0,0,0,0,0.7975,0.7976,0.7988,0.7989,0.799,0.8001,0.7992,0.7999,0.8015,0.8006,0.8017,0.8017,0.802,0.8021,0.8022,0.8016,0.8016,0.803,0.803,0.803,0.803,0,0,0,0,0,0,0,0.7975,0.7975,0.7981,0.7988,0.7989,0.7995,0.7997,0.7994,0.8009,0.8007,0.8009,0.801,0.8021,0.8022,0.8022,0.8017,0.803,0.803,0.803,0.803,0.7998,0.7997,0,0,0,0,0,0,0.7972,0.7975,0.7981,0.7981,0.7984,0.7995,0.7997,0.7997,0.8009,0.8011,0.8009,0.8011,0.8022,0.8023,0.8023,0.8005,0.803,0.803,0.8029,0.7998,0.7997,0.7997,0,0,0,0,0,0,0.7972,0.7972,0.798,0.7979,0.798,0.7994,0.7994,0.7997,0.7998,0.8011,0.8014,0.8008,0.8022,0.8023,0.8017,0.8006,0.8029,0.8029,0.7999,0.7998,0.7997,0.797,0,0,0,0,0,0,0.7971,0.7972,0.7967,0.7978,0.798,0.7974,0.7994,0.7997,0.7998,0.8,0.801,0.8012,0.8023,0.8017,0.8017,0.8006,0.8029,0.8,0.7999,0.7997,0.7972,0.7968,0.7965,0,0,0,0,0,0.7971,0.7959,0.7967,0.7967,0.7974,0.7973,0.7974,0.7987,0.7997,0.7992,0.8,0.8012,0.8007,0.8016,0.8016,0.8005,0.8001,0.7999,0.7997,0.7973,0.7969,0.7965,0,0,0,0,0,0,0.7946,0.7961,0.7969,0.7961,0.7965,0.7977,0.7971,0.7982,0.7984,0.7986,0.8001,0.8003,0.7994,0.8,0.8009,0.7991,0.8006,0.8004,0.7988,0.7983,0.798,0.7978,0.8029,0,0,0,0,0,0.7939,0.7938,0.7951,0.7942,0.7944,0.7957,0.7957,0.7967,0.7972,0.7974,0.7982,0.7986,0.7986,0.7985,0.7985,0.7973,0.7975,0.7966,0.7962,0.7959,0.7957,0.7949,0.7945,0.7991,0.7991,0.7991,0,0,0.7926,0.7934,0.7932,0.7937,0.7942,0.7939,0.7959,0.7955,0.7953,0.7974,0.7968,0.7973,0.7979,0.7969,0.7965,0.7973,0.7945,0.7957,0.7954,0.7954,0.7947,0.7943,0.7939,0.799,0.799,0.799,0,0,0.79,0.7906,0.7898,0.7903,0.791,0.7919,0.7917,0.7927,0.7931,0.7926,0.794,0.7938,0.7937,0.794,0.7942,0.7916,0.7927,0.7916,0.7897,0.7889,0.7885,0.7882,0.7871,0.7867,0.7914,0.7914,0.7914,0,0.7882,0.7879,0.7893,0.7889,0.789,0.7908,0.79,0.7904,0.791,0.791,0.7919,0.7918,0.7923,0.7914,0.7907,0.7908,0.7906,0.7914,0.7885,0.7882,0.7879,0.7869,0.7865,0.7912,0.7912,0.7912,0.7913,0,0.7856,0.7853,0.7846,0.7852,0.7853,0.7846,0.7859,0.7858,0.7867,0.7875,0.7868,0.7875,0.7876,0.7875,0.7884,0.7866,0.7871,0.7882,0.7897,0.7873,0.7863,0.786,0.791,0.791,0.7911,0.7911,0,0,0.7814,0.7827,0.7824,0.7826,0.7835,0.7833,0.7827,0.7829,0.7827,0.7831,0.7825,0.7824,0.7834,0.7836,0.7845,0.7839,0.7816,0.7851,0.7851,0.7843,0.7795,0.7785,0.778,0.7823,0.7823,0.7822,0.7794,0,0.7788,0.7779,0.7791,0.7779,0.7777,0.7794,0.7788,0.7793,0.7799,0.7798,0.7805,0.7803,0.7817,0.7818,0.7812,0.782,0.7806,0.7822,0.7817,0.7817,0.7814,0.7776,0.7766,0.7739,0.779,0.779,0.7789,0,0.7757,0.7759,0.7747,0.7755,0.7754,0.7749,0.7751,0.775,0.7755,0.776,0.7761,0.7772,0.7766,0.7782,0.7773,0.7784,0.7782,0.7786,0.7785,0.7784,0.7801,0.7773,0.7731,0.7726,0.7784,0.7784,0.7785,0,0.7726,0.7726,0.7718,0.7719,0.773,0.7725,0.7729,0.7735,0.7735,0.7736,0.7736,0.7737,0.7737,0.7736,0.7747,0.7758,0.7736,0.7753,0.7739,0.7739,0.7733,0.7733,0.7689,0.7735,0.7735,0.7735,0.7735,0,0.7695,0.7687,0.7704,0.7699,0.7689,0.7703,0.7693,0.7699,0.7704,0.7699,0.7715,0.771,0.7725,0.7722,0.7731,0.7721,0.7721,0.7725,0.7727,0.7722,0.7722,0.7721,0.7723,0.7734,0.7734,0.7734,0.7734,0,0.7659,0.767,0.7662,0.7672,0.7674,0.7667,0.7675,0.767,0.7678,0.7672,0.7672,0.7683,0.768,0.7691,0.769,0.7696,0.7681,0.7687,0.768,0.7681,0.7666,0.7667,0.7619,0.7613,0.7663,0.7663,0.7662,0,0.7638,0.7631,0.764,0.7639,0.7642,0.7639,0.7639,0.7652,0.7651,0.7656,0.765,0.7649,0.7648,0.7642,0.765,0.7649,0.7654,0.7637,0.7654,0.7649,0.7652,0.7652,0.765,0.7634,0.7633,0.7632,0.7632,0,0.7599,0.7605,0.7604,0.7604,0.7603,0.7604,0.7607,0.7604,0.7619,0.7617,0.7614,0.7613,0.7612,0.7609,0.761,0.7613,0.7624,0.7627,0.7623,0.7618,0.7613,0.7614,0.7669,0.7628,0.7628,0.7628,0.7629,0.7629,0.7568,0.7563,0.7568,0.7566,0.7569,0.7571,0.7566,0.7573,0.7571,0.7571,0.758,0.7575,0.7579,0.7581,0.7583,0.7579,0.7586,0.7582,0.758,0.7578,0.7575,0.7615,0.7579,0.7579,0.7579,0.7579,0.7579,0,0.7529,0.7533,0.7531,0.7534,0.7532,0.7543,0.7546,0.7543,0.7539,0.7542,0.7541,0.7537,0.7534,0.7542,0.7541,0.7536,0.7541,0.7535,0.7534,0.7535,0.7569,0.7572,0.7531,0.7531,0.7531,0.7531,0.7531,0.7531,0.7508,0.7499,0.7505,0.7498,0.7502,0.7497,0.7498,0.7498,0.7501,0.7496,0.7494,0.7499,0.7503,0.7502,0.75,0.7502,0.75,0.7492,0.7496,0.7528,0.7532,0.7537,0.7539,0.7492,0.7492,0.7462,0.7462,0.7461]}]]